• In Schweiz
  • Länderverzeichnis
  • Für 7 Tage
  • Wassertemperatur
  • Satellitenkarten
  • Wetterkarte
  • Widgets
  • user-avatar
    Anmelden

    Stündliche Wetter Kirkuk

    Heute, 18 Oktober, Donnerstag

    Zeit Temperatur Niederschläge Wind Luftdruck Luftfeuchtigkeit
    00:00 +28°C° 0 mm 3 m/S 731 mmHg 29%
    01:00 +28°C° 0 mm 3 m/S 731 mmHg 29%
    02:00 +27°C° 0 mm 3 m/S 731 mmHg 29%
    03:00 +27°C° 0 mm 3 m/S 731 mmHg 30%
    04:00 +27°C° 0 mm 3 m/S 731 mmHg 30%
    05:00 +27°C° 0 mm 3 m/S 731 mmHg 30%
    06:00 +26°C° 0 mm 3 m/S 731 mmHg 30%
    07:00 +28°C° 0 mm 3 m/S 731 mmHg 27%
    08:00 +29°C° 0 mm 3 m/S 732 mmHg 25%
    09:00 +30°C° 0 mm 3 m/S 732 mmHg 22%
    10:00 +31°C° 0 mm 3 m/S 731 mmHg 21%
    11:00 +34°C° 0 mm 3 m/S 731 mmHg 19%
    12:00 +35°C° 0 mm 2 m/S 731 mmHg 17%
    13:00 +35°C° 0 mm 2 m/S 731 mmHg 17%
    14:00 +34°C° 0 mm 1 m/S 731 mmHg 17%
    15:00 +34°C° 0 mm 1 m/S 730 mmHg 16%
    16:00 +34°C° 0 mm 1 m/S 730 mmHg 18%
    17:00 +33°C° 0 mm 1 m/S 730 mmHg 19%
    18:00 +30°C° 0 mm 0 m/S 730 mmHg 21%
    19:00 +31°C° 0 mm 1 m/S 730 mmHg 21%
    20:00 +31°C° 0 mm 2 m/S 730 mmHg 22%
    21:00 +30°C° 0 mm 3 m/S 731 mmHg 22%
    22:00 +30°C° 0 mm 3 m/S 730 mmHg 23%
    23:00 +29°C° 0 mm 3 m/S 730 mmHg 23%

    Morgen, 19 Oktober, Freitag

    Zeit Temperatur Niederschläge Wind Luftdruck Luftfeuchtigkeit
    00:00 +29°C° 0 mm 3 m/S 730 mmHg 24%
    01:00 +28°C° 0 mm 3 m/S 730 mmHg 25%
    02:00 +28°C° 0 mm 3 m/S 730 mmHg 26%
    03:00 +27°C° 0 mm 3 m/S 730 mmHg 27%
    04:00 +27°C° 0.2 mm 3 m/S 731 mmHg 27%
    05:00 +27°C° 0.2 mm 3 m/S 731 mmHg 28%
    06:00 +27°C° 0.2 mm 3 m/S 731 mmHg 28%
    07:00 +28°C° 0.1 mm 3 m/S 731 mmHg 26%
    08:00 +29°C° 0.1 mm 3 m/S 732 mmHg 24%
    09:00 +30°C° 0.1 mm 3 m/S 732 mmHg 22%
    10:00 +31°C° 0 mm 3 m/S 732 mmHg 21%
    11:00 +33°C° 0 mm 3 m/S 732 mmHg 20%
    12:00 +34°C° 0 mm 2 m/S 732 mmHg 18%
    13:00 +34°C° 0 mm 3 m/S 732 mmHg 19%
    14:00 +34°C° 0 mm 3 m/S 731 mmHg 20%
    15:00 +34°C° 0 mm 3 m/S 731 mmHg 20%
    16:00 +33°C° 0 mm 3 m/S 731 mmHg 22%
    17:00 +31°C° 0 mm 3 m/S 731 mmHg 23%
    18:00 +30°C° 0 mm 4 m/S 731 mmHg 25%
    19:00 +29°C° 0 mm 3 m/S 731 mmHg 26%
    20:00 +29°C° 0 mm 3 m/S 731 mmHg 27%
    21:00 +28°C° 0 mm 3 m/S 731 mmHg 29%
    22:00 +28°C° 0.2 mm 3 m/S 731 mmHg 30%
    23:00 +27°C° 0.2 mm 3 m/S 731 mmHg 31%

    übermorgen, 20 Oktober, Samstag

    Zeit Temperatur Niederschläge Wind Luftdruck Luftfeuchtigkeit
    00:00 +27°C° 0.2 mm 2 m/S 731 mmHg 33%
    01:00 +27°C° 0.2 mm 3 m/S 731 mmHg 33%
    02:00 +27°C° 0.2 mm 3 m/S 731 mmHg 34%
    03:00 +27°C° 0.2 mm 4 m/S 731 mmHg 34%
    04:00 +26°C° 0.3 mm 4 m/S 731 mmHg 35%
    05:00 +26°C° 0.3 mm 4 m/S 731 mmHg 36%
    06:00 +26°C° 0.3 mm 4 m/S 731 mmHg 37%
    07:00 +27°C° 0.2 mm 4 m/S 731 mmHg 34%
    08:00 +28°C° 0.2 mm 5 m/S 732 mmHg 32%
    09:00 +29°C° 0.2 mm 5 m/S 732 mmHg 29%
    10:00 +30°C° 0 mm 5 m/S 732 mmHg 27%
    11:00 +33°C° 0 mm 5 m/S 732 mmHg 25%
    12:00 +34°C° 0 mm 5 m/S 732 mmHg 23%
    13:00 +34°C° 0 mm 4 m/S 731 mmHg 23%
    14:00 +34°C° 0 mm 4 m/S 731 mmHg 22%
    15:00 +35°C° 0 mm 4 m/S 731 mmHg 21%
    16:00 +34°C° 0 mm 3 m/S 731 mmHg 23%
    17:00 +33°C° 0 mm 3 m/S 731 mmHg 26%
    18:00 +31°C° 0 mm 3 m/S 730 mmHg 28%
    19:00 +30°C° 0.1 mm 3 m/S 731 mmHg 30%
    20:00 +30°C° 0.1 mm 4 m/S 731 mmHg 33%
    21:00 +29°C° 0.1 mm 4 m/S 731 mmHg 35%
    22:00 +28°C° 0.2 mm 4 m/S 731 mmHg 36%
    23:00 +28°C° 0.2 mm 4 m/S 731 mmHg 37%

    21 Oktober, Sonntag

    Zeit Temperatur Niederschläge Wind Luftdruck Luftfeuchtigkeit
    00:00 +27°C° 0.2 mm 4 m/S 731 mmHg 38%
    01:00 +27°C° 0.8 mm 4 m/S 730 mmHg 42%
    02:00 +26°C° 0.8 mm 4 m/S 730 mmHg 46%
    03:00 +25°C° 0.8 mm 5 m/S 730 mmHg 49%
    04:00 +25°C° 1.5 mm 5 m/S 730 mmHg 51%
    05:00 +25°C° 1.5 mm 5 m/S 730 mmHg 52%
    06:00 +23°C° 1.5 mm 6 m/S 730 mmHg 53%
    07:00 +24°C° 1.5 mm 6 m/S 731 mmHg 53%
    08:00 +24°C° 1.5 mm 7 m/S 731 mmHg 52%
    09:00 +26°C° 1.5 mm 7 m/S 731 mmHg 51%
    10:00 +27°C° 0.8 mm 7 m/S 731 mmHg 48%
    11:00 +28°C° 0.8 mm 7 m/S 731 mmHg 45%
    12:00 +30°C° 0.8 mm 7 m/S 731 mmHg 42%
    13:00 +29°C° 1.9 mm 7 m/S 730 mmHg 44%
    14:00 +29°C° 1.9 mm 6 m/S 729 mmHg 46%
    15:00 +29°C° 1.9 mm 6 m/S 729 mmHg 47%
    16:00 +28°C° 4 mm 6 m/S 729 mmHg 53%
    17:00 +26°C° 4 mm 7 m/S 729 mmHg 59%
    18:00 +23°C° 4 mm 7 m/S 728 mmHg 65%
    19:00 +23°C° 0.7 mm 6 m/S 729 mmHg 64%
    20:00 +25°C° 0.7 mm 5 m/S 729 mmHg 64%
    21:00 +25°C° 0.7 mm 4 m/S 729 mmHg 63%
    22:00 +23°C° 0.2 mm 4 m/S 729 mmHg 64%
    23:00 +23°C° 0.2 mm 4 m/S 730 mmHg 65%

    22 Oktober, Montag

    Zeit Temperatur Niederschläge Wind Luftdruck Luftfeuchtigkeit
    00:00 +23°C° 0.2 mm 4 m/S 730 mmHg 66%
    01:00 +23°C° 0.3 mm 4 m/S 730 mmHg 67%
    02:00 +22°C° 0.3 mm 4 m/S 730 mmHg 67%
    03:00 +22°C° 0.3 mm 4 m/S 730 mmHg 68%
    04:00 +22°C° 0.2 mm 4 m/S 730 mmHg 68%
    05:00 +22°C° 0.2 mm 4 m/S 731 mmHg 69%
    06:00 +22°C° 0.2 mm 4 m/S 731 mmHg 70%
    07:00 +23°C° 0.3 mm 5 m/S 732 mmHg 67%
    08:00 +23°C° 0.3 mm 5 m/S 732 mmHg 65%
    09:00 +24°C° 0.3 mm 6 m/S 733 mmHg 63%
    10:00 +26°C° 0.6 mm 5 m/S 733 mmHg 58%
    11:00 +27°C° 0.6 mm 5 m/S 733 mmHg 53%
    12:00 +28°C° 0.6 mm 5 m/S 732 mmHg 49%
    13:00 +29°C° 0.1 mm 4 m/S 732 mmHg 46%
    14:00 +29°C° 0.1 mm 4 m/S 732 mmHg 44%
    15:00 +29°C° 0.1 mm 3 m/S 732 mmHg 42%
    16:00 +29°C° 0 mm 3 m/S 732 mmHg 44%
    17:00 +28°C° 0 mm 2 m/S 732 mmHg 46%
    18:00 +28°C° 0 mm 2 m/S 732 mmHg 49%
    19:00 +27°C° 0.2 mm 2 m/S 732 mmHg 51%
    20:00 +27°C° 0.2 mm 3 m/S 733 mmHg 52%
    21:00 +26°C° 0.2 mm 3 m/S 733 mmHg 54%
    22:00 +26°C° 0 mm 3 m/S 733 mmHg 54%
    23:00 +25°C° 0 mm 3 m/S 733 mmHg 54%

    23 Oktober, Dienstag

    Zeit Temperatur Niederschläge Wind Luftdruck Luftfeuchtigkeit
    00:00 +25°C° 0 mm 3 m/S 733 mmHg 54%
    01:00 +25°C° 0 mm 3 m/S 732 mmHg 54%
    02:00 +25°C° 0 mm 3 m/S 732 mmHg 53%
    03:00 +25°C° 0 mm 4 m/S 732 mmHg 53%
    04:00 +25°C° 0 mm 3 m/S 732 mmHg 53%
    05:00 +24°C° 0 mm 3 m/S 732 mmHg 52%
    06:00 +24°C° 0 mm 3 m/S 733 mmHg 52%
    07:00 +25°C° 0 mm 3 m/S 733 mmHg 48%
    08:00 +27°C° 0 mm 3 m/S 733 mmHg 44%
    09:00 +28°C° 0 mm 4 m/S 733 mmHg 40%
    10:00 +29°C° 0 mm 3 m/S 733 mmHg 36%
    11:00 +30°C° 0 mm 3 m/S 733 mmHg 33%
    12:00 +31°C° 0 mm 3 m/S 733 mmHg 29%
    13:00 +33°C° 0 mm 3 m/S 732 mmHg 28%
    14:00 +33°C° 0 mm 3 m/S 732 mmHg 27%
    15:00 +33°C° 0 mm 3 m/S 731 mmHg 26%
    16:00 +31°C° 0 mm 2 m/S 731 mmHg 28%
    17:00 +31°C° 0 mm 2 m/S 731 mmHg 31%
    18:00 +30°C° 0 mm 2 m/S 731 mmHg 33%
    19:00 +29°C° 0 mm 3 m/S 731 mmHg 33%
    20:00 +29°C° 0 mm 3 m/S 731 mmHg 33%
    21:00 +29°C° 0 mm 4 m/S 731 mmHg 33%
    22:00 +28°C° 0.2 mm 3 m/S 731 mmHg 35%
    23:00 +28°C° 0.2 mm 3 m/S 731 mmHg 36%
    Mehr zeigen